Overview Statistics Trail Chart Weather Telemetry Raw packets
 

This is the latest recevied weather packets stored in our database for station/object N1YZ. If no packets are shown the sender has not sent any weather packets the latest 10 day(s).

<< 1 2 3 4 5 6 7 >>
Time Temp. Humidity Pressure Rain* Wind** Luminosity Snow
1788642097 35° C 59% 1030.6 hPa 0 mm - 73 W/m² -
1788641796 35° C 59% 1030.8 hPa 0 mm - 101 W/m² -
1788641491 35° C 60% 1030.8 hPa 0 mm - 149 W/m² -
1788641190 35° C 59% 1030.6 hPa 0 mm - 133 W/m² -
1788640913 34.44° C 59% 1030.5 hPa 0 mm - 91 W/m² -
1788640585 34.44° C 61% 1030.7 hPa 0 mm - 95 W/m² -
1788640281 34.44° C 62% 1030.8 hPa 0 mm - 88 W/m² -
1788639976 33.89° C 62% 1030.7 hPa 0 mm - 154 W/m² -
1788639672 34.44° C 62% 1031.1 hPa 0 mm - 80 W/m² -
1788639367 34.44° C 59% 1031.1 hPa 0 mm - 76 W/m² -
1788639066 34.44° C 60% 1031.1 hPa 0 mm - 76 W/m² -
1788638762 34.44° C 61% 1031.1 hPa 0 mm - 138 W/m² -
1788638456 34.44° C 62% 1031 hPa 0 mm - 96 W/m² -
1788638150 35° C 59% 1030.8 hPa 0 mm - 73 W/m² -
1788637846 35.56° C 54% 1031 hPa 0 mm - 114 W/m² -
1788637545 35.56° C 50% 1031.1 hPa 0 mm - 93 W/m² -
1788637245 35° C 49% 1031 hPa 0 mm - 97 W/m² -
1788636940 35.56° C 54% 1031 hPa 0 mm - 68 W/m² -
1788636635 35.56° C 51% 1031.2 hPa 0 mm - 91 W/m² -
1788636330 35.56° C 50% 1031.5 hPa 0 mm - 84 W/m² -
1788636027 35.56° C 50% 1031.6 hPa 0 mm - 75 W/m² -
1788635724 35.56° C 50% 1031.7 hPa 0 mm - 128 W/m² -
1788635424 35° C 52% 1031.8 hPa 0 mm - 84 W/m² -
1788635141 34.44° C 55% 1031.7 hPa 0 mm - 252 W/m² -
1788634816 34.44° C 57% 1031.7 hPa 0 mm - 236 W/m² -

* Rain latest hour (hover to see other rain measurements)
** Current wind speed in m/s (hover to see current wind gust speed)